Showing default

FGN-100-D3, 68464

Orbit data source: Space-Track

FGN-100-D3, 68464 is a Turkish payload satellite in SSO that was launched on Mon, 30 Mar 2026 UTC via an FALCON 9 launch vehicle from the Air Force Western Test Range (AFWTR). Payload-class satellites include a variety of spacecraft equipped with specific instruments for various scientific and technological missions. These include communications satellites like Starlink; space stations such as the ISS; scientific satellites like the Hubble; Earth observation satellites from companies like Planet Labs, Umbra, and HawkEye 360; GPS; miniature CubeSats for education and research; and military/defense satellites.

Loading next visibility...
Identifier
68464, 2026-067BA
Orbit
SSO
Country
Flag of TRTR / TURK
Related business
Manufacturer
FERG
Mission
Operational Commercial Navigation
Bus & Motor
FGN-100, Unknown motor
Mass
113 kg wet, 113 kg dry
Launch date (UTC)
2026-03-30 (5 months ago)
Launch vehicle
FALCON 9
Launch site
Air Force Western Test Range (AFWTR)
Object type
Payload
Rocket body
Debris
Shape & HBR
Box, 0.6 m
Radar Cross Section
0.480 m², Medium (>0.1 m² and < 1m²)

Expand to show TLE details & history
Last TLE update: 12 hours ago

TLE from 12 hours ago
0 FGN-100-D3
1 68464U 26067BA  26254.45742566  .00003201  00000-0  15921-3 0  9994
2 68464  97.4609 211.5605 0004365 124.8612 235.3033 15.18341462 25020
Epoch: 2026-09-11T10:58Z
TLE epoch observation values (Epoch: 2026-09-11T10:58:41.577Z)
Latitude
Longitude
56.40676°
Altitude
515.652 km
Speed
7.605 km/s
True Right ascension
14h 06m 14s
True Declination
0° 00' 00"
Sunlit
Object was in daylight at epoch
Visualization orbit readout
Latitude
Unknown
Longitude
Unknown
Altitude
Unknown
Speed
Unknown
Apparent Right ascension
Unknown
Apparent Declination
Unknown
Sunlit
N/A
Visualization observer readout
Local Sidereal Time
15:43:50
Azimuth
Unknown
Elevation
Unknown
Doppler factor
Unknown
Orbital elements
Apogee altitude
510.829 km
Perigee altitude
504.817 km
Semi-major axis
6,885.96 km
Eccentricity
0.00044
Inclination
97.4609°
RAAN
211.5605°
Arg. of periapsis
124.8612°
True anomaly
235.26219°
Mean anomaly
235.3033°
Eccentric anomaly
235.28274°
Mean motion
3.79836 °/min
Orbital period
94.78 mins
BSTAR
0.00015921
Loading maneuver chart data...
Computing Atmospheric mass density...
Loading historical data...
Loading historical data...
Loading historical data...
Loading historical data...
Loading historical data...
Loading historical data...
Loading historical data...

Documentation

Showing up to 5 results
|